Flag for Germany Weather past 2 weeks in Kerpen, North Rhine-Westphalia, Germany

Now
68 °F

Passing clouds.


Feels Like: 68 °F
Forecast: 39 / 61 °F
Wind: 6 mph from Northwest

Location: Noervenich

Current Time: Apr 21, 2015 at 4:01:35 PM

Latest Report: Apr 21, 2015 at 3:20 PM


Visibility: N/A

Pressure: 30.42 "Hg

Humidity: 35%

Dew point: 39 °F

Location of KerpenLocation

Historic Weather in Kerpen — Graph

°F

Kerpen temperature yesterday

Maximum temperature yesterday: 64 °F (at 2:20 PM)
Minimum temperature yesterday: 36 °F (at 5:20 AM)
Average temperature yesterday: 52 °F

Past Weeks' High & Low Weather Summary

 TemperatureHumidityPressure
High75 °F (Apr 15, 2:20 PM)100% (Apr 7, 1:20 AM)30.63 "Hg (Apr 7, 1:20 AM)
Low30 °F (Apr 7, 3:20 AM)23% (Apr 10, 6:20 PM)29.92 "Hg (Apr 15, 7:20 PM)
Average51 °F63%30.26 "Hg
* Reported Apr 6 2:20 PM — Apr 21 2:20 PM, Kerpen, Weather by CustomWeather, © 2015

Note: Actual official high and low records may vary slightly from our data, if they occured in-between our weather recording intervals... More about our weather records

Advertising

Kerpen weather history for previous 24 hours

 ConditionsComfort  
Time TempWeatherWind HumidityBarometerVisibility
2:20 PM
Tue, Apr 21
66 °FScattered clouds.3 mph43%30.42 "HgN/A
1:20 PM63 °FScattered clouds.5 mph49%30.45 "HgN/A
12:20 PM61 °FScattered clouds.5 mph52%30.45 "HgN/A
11:20 AM59 °FScattered clouds.2 mph51%30.45 "HgN/A
10:20 AM54 °FScattered clouds.1 mph63%30.45 "HgN/A
9:20 AM50 °FScattered clouds.2 mph71%30.45 "HgN/A
8:20 AM46 °FScattered clouds.1 mph76%30.42 "HgN/A
7:20 AM43 °FPassing clouds.1 mph81%30.42 "HgN/A
6:20 AM43 °FPassing clouds.3 mph81%30.39 "HgN/A
5:20 AM43 °FPassing clouds.6 mph81%30.39 "HgN/A
4:20 AM45 °FPassing clouds.6 mph76%30.39 "HgN/A
3:20 AM46 °FPassing clouds.2 mph71%30.39 "HgN/A
2:20 AM46 °FPassing clouds.1 mph71%30.39 "HgN/A
1:20 AM50 °FPassing clouds.1 mph62%30.36 "HgN/A
12:20 AM50 °FPassing clouds.3 mph62%30.36 "HgN/A
11:20 PM
Mon, Apr 20
54 °FPassing clouds.3 mph51%30.36 "HgN/A
10:20 PM54 °FPassing clouds.No wind51%30.36 "HgN/A
9:20 PM57 °FScattered clouds.3 mph44%30.36 "HgN/A
8:20 PM61 °FScattered clouds.5 mph39%30.33 "HgN/A
7:20 PM63 °FScattered clouds.6 mph34%30.33 "HgN/A
6:20 PM64 °FPassing clouds.7 mph34%30.33 "HgN/A
5:20 PM64 °FPassing clouds.8 mph32%30.30 "HgN/A
4:20 PM64 °FPassing clouds.7 mph32%30.33 "HgN/A
Weather by CustomWeather, © 2015

See weather overviewHow to use our weather pages